[[{"header":{"parameterUnit":"m.s-1","parameterCategory":2,"la1":30.2991,"la2":30.254,"lo1":-89.0895,"lo2":-89.0444,"dy":0.0017,"dx":0.0017,"nx":28,"ny":28,"refTime":"2023-10-31T21:00:00:Z","depth":"0","parameterNumber":2,"parameterNumberName":"U-component_of_CURRENTS"},"data":[0,0,0,0,0,0,0,0,0,0,0,0,0,0,0,0,0,0,0,0,0,0,0,0,0,0,0,0,0,0,0,0,0,0,0,0,0,0,0,0,0,0,0,0,0,0,0,0,0,0,0,0,0,0,0,0,0,0,-0.2619,-0.262,0,-0.2665,-0.2666,-0.2666,-0.2658,-0.2657,-0.2657,-0.2656,-0.2669,-0.267,-0.267,0,0,0,0,0,0,0,0,0,0,0,0,0,-0.2546,-0.2547,-0.2619,-0.262,-0.2621,-0.2665,-0.2666,-0.2666,-0.2658,-0.2657,-0.2657,-0.2656,-0.2669,-0.2669,-0.267,0,0,0,0,0,0,0,0,0,0,0,0,0,-0.2581,-0.2547,-0.2619,-0.2624,-0.2626,-0.2665,-0.2666,-0.2666,-0.2658,-0.2657,-0.2657,-0.2656,-0.2668,-0.2669,-0.2671,-0.2694,0,0,-0.2674,-0.2675,0,0,0,0,0,0,0,0,-0.2579,-0.2583,-0.2623,-0.2624,-0.2626,-0.2658,-0.2645,-0.2675,-0.2658,-0.2643,-0.2656,-0.2655,-0.2665,-0.2666,-0.2673,-0.2695,-0.2696,-0.2675,-0.2675,-0.2676,-0.2676,0,0,0,0,0,0,0,-0.2576,-0.2581,-0.2634,-0.2624,-0.2626,-0.2632,-0.2636,-0.265,-0.2655,-0.2644,-0.2644,-0.2654,-0.2664,-0.2672,-0.2673,-0.2696,-0.2675,-0.2676,-0.2676,-0.2677,-0.2734,-0.2735,0,0,0,0,0,0,-0.2577,-0.2579,-0.2633,-0.2636,-0.2603,-0.2635,-0.2638,-0.2646,-0.2655,-0.2657,-0.2655,-0.2654,-0.267,-0.2671,-0.2673,-0.2693,-0.2676,-0.2677,-0.2678,-0.2733,-0.2734,-0.2735,0,0,0,0,0,0,-0.2575,-0.2581,-0.2631,-0.2611,-0.2618,-0.2637,-0.2645,-0.2647,-0.2651,-0.2665,-0.2665,-0.2656,-0.2669,-0.2672,-0.2685,-0.2694,-0.2678,-0.2679,-0.2732,-0.2734,-0.2735,-0.2738,0,0,0,0,0,0,-0.2572,-0.258,-0.2578,-0.2611,-0.2619,-0.2655,-0.2646,-0.2649,-0.266,-0.2658,-0.2666,-0.2666,-0.2669,-0.2683,-0.2686,-0.2695,-0.268,-0.2731,-0.2733,-0.2734,-0.2737,-0.2739,-0.2741,0,0,0,0,0,-0.257,-0.2581,-0.2578,-0.2584,-0.2619,-0.2656,-0.266,-0.2669,-0.2661,-0.2667,-0.267,-0.2666,-0.2694,-0.2685,-0.2688,-0.2698,-0.2731,-0.2732,-0.2734,-0.2736,-0.2739,-0.2741,0,0,0,0,0,0,-0.2553,-0.2582,-0.258,-0.2599,-0.2622,-0.2655,-0.2664,-0.2669,-0.2678,-0.2671,-0.2676,-0.2678,-0.2694,-0.2698,-0.2688,-0.272,-0.2712,-0.2715,-0.2713,-0.2716,-0.2718,-0.2714,-0.2681,0,0,0,0,0,-0.2548,-0.2557,-0.259,-0.2603,-0.2615,-0.2636,-0.2649,-0.2658,-0.2675,-0.2677,-0.2684,-0.2692,-0.2706,-0.2711,-0.2724,-0.2742,-0.2736,-0.2751,-0.2753,-0.2755,-0.2756,-0.2763,-0.2765,-0.2741,-0.2741,-0.2741,0,0,-0.2545,-0.2562,-0.2567,-0.2599,-0.2615,-0.264,-0.2641,-0.2665,-0.268,-0.2678,-0.2693,-0.27,-0.2713,-0.2732,-0.274,-0.2734,-0.2756,-0.2757,-0.2758,-0.2758,-0.2765,-0.2767,-0.2769,-0.2742,-0.2742,-0.2741,0,0,-0.2549,-0.256,-0.2568,-0.2591,-0.262,-0.264,-0.2646,-0.2677,-0.2682,-0.2703,-0.2705,-0.2716,-0.2738,-0.2748,-0.2756,-0.278,-0.2768,-0.2786,-0.2791,-0.2798,-0.28,-0.2801,-0.2781,-0.278,-0.2785,-0.2785,-0.2785,0,-0.2541,-0.2557,-0.2578,-0.2598,-0.2616,-0.2639,-0.2659,-0.2678,-0.2707,-0.2714,-0.2707,-0.2739,-0.2746,-0.2771,-0.2777,-0.2784,-0.2776,-0.2778,-0.2799,-0.2801,-0.2802,-0.2781,-0.2781,-0.2785,-0.2785,-0.2785,-0.2785,0,-0.2554,-0.2568,-0.2581,-0.2608,-0.2632,-0.2656,-0.269,-0.2707,-0.2714,-0.273,-0.275,-0.2761,-0.2778,-0.2785,-0.2787,-0.2806,-0.2792,-0.28,-0.2789,-0.2805,-0.2781,-0.2781,-0.2786,-0.2786,-0.2785,-0.2785,0,0,-0.2528,-0.2577,-0.2579,-0.259,-0.2638,-0.266,-0.2693,-0.2726,-0.2741,-0.276,-0.2774,-0.2798,-0.2798,-0.2807,-0.2813,-0.2818,-0.2814,-0.2812,-0.2812,-0.2783,-0.2808,-0.2779,-0.2775,-0.2825,-0.2826,-0.2826,-0.2781,0,-0.2525,-0.2554,-0.2586,-0.2616,-0.2633,-0.2674,-0.2703,-0.2736,-0.2758,-0.2779,-0.2792,-0.2807,-0.281,-0.2811,-0.282,-0.2823,-0.2816,-0.2824,-0.2804,-0.2803,-0.277,-0.2776,-0.2767,-0.2726,-0.2781,-0.278,-0.278,0,-0.2515,-0.2539,-0.256,-0.2611,-0.2623,-0.2646,-0.269,-0.2721,-0.2765,-0.2781,-0.2802,-0.2814,-0.283,-0.2825,-0.283,-0.2835,-0.2819,-0.2814,-0.2813,-0.2786,-0.2774,-0.2724,-0.2723,-0.2684,-0.2779,-0.2779,-0.278,0,-0.2463,-0.2518,-0.2528,-0.2547,-0.2611,-0.2625,-0.2658,-0.2708,-0.2734,-0.2774,-0.2791,-0.2817,-0.2821,-0.2823,-0.2816,-0.2823,-0.2809,-0.2817,-0.2771,-0.2768,-0.2757,-0.2752,-0.2712,-0.281,-0.281,-0.281,-0.281,0,-0.2435,-0.2445,-0.2502,-0.2507,-0.2528,-0.2585,-0.2607,-0.265,-0.2703,-0.2734,-0.2778,-0.2802,-0.2823,-0.2823,-0.2814,-0.2787,-0.2806,-0.2768,-0.276,-0.2756,-0.2752,-0.2716,-0.2712,-0.2808,-0.2809,-0.2809,-0.2809,0,-0.2365,-0.2402,-0.2423,-0.2483,-0.2497,-0.2507,-0.2571,-0.2595,-0.2655,-0.2697,-0.2709,-0.2779,-0.2794,-0.2798,-0.2794,-0.2775,-0.2714,-0.2737,-0.2717,-0.2707,-0.2634,-0.2631,-0.2533,-0.247,-0.2682,-0.2681,-0.2681,0,-0.233,-0.2329,-0.2385,-0.2392,-0.2413,-0.2441,-0.2465,-0.2548,-0.2582,-0.2684,-0.2699,-0.274,-0.2775,-0.2758,-0.2758,-0.273,-0.2669,-0.2658,-0.2676,-0.2622,-0.2613,-0.2562,-0.2513,-0.2653,-0.2652,-0.2652,-0.2651,0,-0.2261,-0.2278,-0.2294,-0.231,-0.2329,-0.236,-0.2402,-0.2429,-0.2535,-0.2598,-0.2674,-0.2714,-0.2753,-0.2753,-0.2717,-0.2688,-0.2602,-0.2641,-0.2604,-0.26,-0.2525,-0.2464,-0.2669,-0.2644,-0.2645,-0.2646,-0.2646,-0.2646,-0.2199,-0.2192,-0.2206,-0.2215,-0.2241,-0.2259,-0.2259,-0.2348,-0.2409,-0.2524,-0.2606,-0.2716,-0.2742,-0.2731,-0.2681,-0.26,-0.2571,-0.2528,-0.253,-0.248,-0.2422,-0.2595,-0.2553,-0.2553,-0.2554,-0.2554,-0.2554,0,-0.211,-0.2105,-0.2111,-0.2115,-0.2106,-0.2151,-0.22,-0.2214,-0.228,-0.2474,-0.2566,-0.2746,-0.2716,-0.272,-0.265,-0.2519,-0.2451,-0.2421,-0.2366,-0.2322,-0.25,-0.2502,-0.2426,-0.2426,-0.2426,-0.2426,-0.2426,-0.2426,-0.206,-0.2017,-0.202,-0.1965,-0.1972,-0.1933,-0.1943,-0.2013,-0.2137,-0.2373,-0.2591,-0.2804,-0.2855,-0.2817,-0.2611,-0.2471,-0.232,-0.2263,-0.22,-0.237,-0.238,-0.239,-0.2389,-0.2291,-0.2291,-0.1988,-0.1986,-0.1984]},{"header":{"parameterUnit":"m.s-1","parameterCategory":2,"la1":30.2991,"la2":30.254,"lo1":-89.0895,"lo2":-89.0444,"dy":0.0017,"dx":0.0017,"nx":28,"ny":28,"refTime":"2023-10-31T21:00:00:Z","depth":"0","parameterNumber":3,"parameterNumberName":"V-component_of_CURRENTS"},"data":[0,0,0,0,0,0,0,0,0,0,0,0,0,0,0,0,0,0,0,0,0,0,0,0,0,0,0,0,0,0,0,0,0,0,0,0,0,0,0,0,0,0,0,0,0,0,0,0,0,0,0,0,0,0,0,0,0,0,-0.0726,-0.0725,0,-0.0663,-0.0662,-0.0661,-0.0602,-0.0602,-0.0601,-0.0601,-0.0475,-0.0472,-0.0469,0,0,0,0,0,0,0,0,0,0,0,0,0,-0.0735,-0.0735,-0.0726,-0.0725,-0.0725,-0.0663,-0.0662,-0.0661,-0.0602,-0.0602,-0.0601,-0.06,-0.0476,-0.0472,-0.0469,0,0,0,0,0,0,0,0,0,0,0,0,0,-0.0705,-0.0735,-0.0726,-0.069,-0.0686,-0.0663,-0.0662,-0.0661,-0.0602,-0.0602,-0.0601,-0.06,-0.0477,-0.0473,-0.0468,-0.0458,0,0,-0.0455,-0.0453,0,0,0,0,0,0,0,0,-0.0707,-0.0705,-0.0696,-0.0692,-0.0688,-0.0642,-0.0619,-0.059,-0.0603,-0.0632,-0.0601,-0.06,-0.0527,-0.0518,-0.0506,-0.0452,-0.0446,-0.0455,-0.0452,-0.045,-0.0449,0,0,0,0,0,0,0,-0.0709,-0.0707,-0.0699,-0.0695,-0.0691,-0.0656,-0.0651,-0.0613,-0.0582,-0.0629,-0.0625,-0.0622,-0.0524,-0.051,-0.0502,-0.0444,-0.0455,-0.0451,-0.0449,-0.0447,-0.0365,-0.0366,0,0,0,0,0,0,-0.0726,-0.0709,-0.0701,-0.0697,-0.0698,-0.0657,-0.0651,-0.0655,-0.0583,-0.0573,-0.0623,-0.062,-0.0518,-0.0507,-0.0498,-0.0476,-0.045,-0.0446,-0.0444,-0.0365,-0.0365,-0.0366,0,0,0,0,0,0,-0.0726,-0.0726,-0.0703,-0.0703,-0.0698,-0.0658,-0.0663,-0.0655,-0.064,-0.058,-0.0567,-0.0617,-0.0517,-0.0504,-0.0466,-0.047,-0.0444,-0.0441,-0.0364,-0.0365,-0.0366,-0.0435,0,0,0,0,0,0,-0.0727,-0.0727,-0.0733,-0.0704,-0.0699,-0.0695,-0.0664,-0.0654,-0.064,-0.0635,-0.057,-0.0558,-0.0515,-0.0473,-0.0462,-0.0464,-0.0437,-0.0364,-0.0365,-0.0365,-0.0432,-0.0438,-0.0442,0,0,0,0,0,-0.0728,-0.0742,-0.0734,-0.0733,-0.071,-0.0696,-0.0689,-0.0656,-0.0641,-0.0639,-0.0595,-0.056,-0.047,-0.047,-0.0457,-0.0458,-0.0363,-0.0364,-0.0365,-0.043,-0.0437,-0.0442,0,0,0,0,0,0,-0.0744,-0.0737,-0.0727,-0.0737,-0.0721,-0.0686,-0.0683,-0.0663,-0.0628,-0.0622,-0.0562,-0.0547,-0.0517,-0.048,-0.0482,-0.0437,-0.0412,-0.041,-0.0465,-0.0471,-0.0476,-0.0485,-0.0434,0,0,0,0,0,-0.0755,-0.0765,-0.0747,-0.0753,-0.075,-0.0718,-0.0708,-0.0689,-0.0657,-0.0641,-0.0596,-0.055,-0.0511,-0.0486,-0.0448,-0.0422,-0.039,-0.0415,-0.0421,-0.0426,-0.0424,-0.0386,-0.0388,-0.0369,-0.0369,-0.0369,0,0,-0.0762,-0.076,-0.0764,-0.0758,-0.0742,-0.0743,-0.071,-0.0702,-0.0695,-0.0632,-0.0607,-0.0567,-0.051,-0.0482,-0.0465,-0.045,-0.0416,-0.0427,-0.0431,-0.0427,-0.0387,-0.0389,-0.039,-0.0369,-0.0369,-0.0369,0,0,-0.0786,-0.0782,-0.08,-0.0792,-0.0781,-0.0762,-0.0765,-0.0737,-0.0716,-0.0693,-0.0646,-0.0612,-0.0552,-0.0514,-0.0486,-0.0498,-0.0448,-0.0486,-0.0513,-0.0477,-0.0478,-0.0479,-0.0453,-0.045,-0.0485,-0.0486,-0.0486,0,-0.0796,-0.0816,-0.08,-0.0813,-0.0811,-0.0777,-0.079,-0.0766,-0.0726,-0.0709,-0.0693,-0.0611,-0.0568,-0.0527,-0.0532,-0.051,-0.0482,-0.0495,-0.0485,-0.0484,-0.0484,-0.0456,-0.0453,-0.0489,-0.0489,-0.0488,-0.0488,0,-0.0832,-0.0845,-0.0855,-0.0862,-0.0856,-0.0862,-0.0834,-0.0819,-0.0794,-0.0763,-0.0722,-0.0666,-0.0615,-0.06,-0.0567,-0.0541,-0.0522,-0.05,-0.0471,-0.049,-0.046,-0.0455,-0.0494,-0.0493,-0.0492,-0.0491,0,0,-0.086,-0.0879,-0.0881,-0.0896,-0.0885,-0.0886,-0.0875,-0.0854,-0.0842,-0.0798,-0.0775,-0.0717,-0.0682,-0.0649,-0.0604,-0.0572,-0.0552,-0.0538,-0.0534,-0.0517,-0.0477,-0.0447,-0.0438,-0.0526,-0.0525,-0.0525,-0.0462,0,-0.0893,-0.0936,-0.0929,-0.0959,-0.0979,-0.0946,-0.0937,-0.0909,-0.0873,-0.0839,-0.0777,-0.0738,-0.0701,-0.0678,-0.0641,-0.0566,-0.054,-0.0572,-0.0456,-0.0453,-0.0427,-0.0432,-0.0479,-0.0425,-0.0457,-0.0456,-0.0455,0,-0.0931,-0.0957,-0.1,-0.1015,-0.1018,-0.1025,-0.1006,-0.0993,-0.0931,-0.0899,-0.0848,-0.0791,-0.0729,-0.0702,-0.0593,-0.0613,-0.0556,-0.0504,-0.0499,-0.0441,-0.0413,-0.0407,-0.0414,-0.0391,-0.0447,-0.0448,-0.0448,0,-0.097,-0.1003,-0.1043,-0.1049,-0.1058,-0.1064,-0.1058,-0.1013,-0.1,-0.0936,-0.0913,-0.0828,-0.078,-0.0697,-0.0582,-0.0588,-0.0461,-0.0454,-0.0378,-0.0375,-0.0377,-0.0375,-0.035,-0.0392,-0.0392,-0.0392,-0.0392,0,-0.1013,-0.1042,-0.1067,-0.1092,-0.1128,-0.111,-0.1125,-0.1099,-0.1055,-0.1041,-0.095,-0.0913,-0.0776,-0.068,-0.059,-0.046,-0.0465,-0.038,-0.0353,-0.0403,-0.0405,-0.0351,-0.0334,-0.039,-0.039,-0.0391,-0.0391,0,-0.1054,-0.1068,-0.1119,-0.1145,-0.1154,-0.118,-0.1183,-0.1187,-0.1133,-0.1111,-0.1092,-0.0969,-0.0838,-0.0697,-0.0546,-0.0467,-0.0328,-0.0307,-0.0376,-0.0357,-0.0272,-0.0257,-0.012,-0.0134,-0.0222,-0.0221,-0.022,0,-0.1081,-0.1114,-0.117,-0.1204,-0.1222,-0.1251,-0.1269,-0.1235,-0.1233,-0.1147,-0.1139,-0.1,-0.0912,-0.0666,-0.049,-0.0319,-0.0282,-0.0263,-0.0282,-0.0269,-0.0233,-0.0178,-0.0198,-0.0319,-0.0319,-0.0319,-0.0319,0,-0.1132,-0.1152,-0.1197,-0.1272,-0.1312,-0.1351,-0.137,-0.1379,-0.1329,-0.1303,-0.1234,-0.1156,-0.0897,-0.0721,-0.0472,-0.036,-0.0258,-0.0255,-0.0227,-0.0291,-0.0244,-0.0245,-0.0363,-0.0318,-0.0318,-0.0318,-0.0318,-0.0318,-0.1167,-0.1212,-0.1272,-0.1342,-0.1391,-0.1443,-0.1483,-0.1492,-0.1498,-0.1475,-0.1347,-0.1252,-0.0963,-0.0613,-0.0471,-0.0244,-0.0224,-0.0219,-0.0198,-0.0138,-0.0163,-0.0275,-0.0204,-0.0204,-0.0203,-0.0203,-0.0203,0,-0.1211,-0.1263,-0.1336,-0.1421,-0.1492,-0.1496,-0.1546,-0.1588,-0.1621,-0.1582,-0.1524,-0.1248,-0.0988,-0.0688,-0.0332,-0.0221,-0.0189,-0.0171,-0.0142,-0.0166,-0.0263,-0.0283,-0.0245,-0.0245,-0.0245,-0.0245,-0.0245,-0.0245,-0.1235,-0.1315,-0.136,-0.149,-0.155,-0.1644,-0.1681,-0.1737,-0.1733,-0.1705,-0.1584,-0.1468,-0.1026,-0.0439,-0.0163,-0.0135,-0.0111,-0.0073,-0.0044,-0.0159,-0.0163,-0.0167,-0.0182,-0.0124,-0.0124,0.0011,0.0012,0.0013]}],[{"header":{"parameterUnit":"m.s-1","parameterCategory":2,"la1":30.2991,"la2":30.254,"lo1":-89.0895,"lo2":-89.0444,"dy":0.0017,"dx":0.0017,"nx":28,"ny":28,"refTime":"2023-10-31T21:00:00:Z","depth":"2","parameterNumber":2,"parameterNumberName":"U-component_of_CURRENTS"},"data":[0,0,0,0,0,0,0,0,0,0,0,0,0,0,0,0,0,0,0,0,0,0,0,0,0,0,0,0,0,0,0,0,0,0,0,0,0,0,0,0,0,0,0,0,0,0,0,0,0,0,0,0,0,0,0,0,0,0,-0.2598,-0.2599,0,-0.2644,-0.2644,-0.2644,-0.2637,-0.2636,-0.2636,-0.2635,-0.2648,-0.2649,-0.265,0,0,0,0,0,0,0,0,0,0,0,0,0,-0.2526,-0.2527,-0.2598,-0.2599,-0.26,-0.2644,-0.2644,-0.2644,-0.2637,-0.2636,-0.2636,-0.2635,-0.2648,-0.2649,-0.265,0,0,0,0,0,0,0,0,0,0,0,0,0,-0.256,-0.2527,-0.2598,-0.2603,-0.2605,-0.2644,-0.2644,-0.2644,-0.2637,-0.2636,-0.2636,-0.2635,-0.2648,-0.2649,-0.265,-0.2673,0,0,-0.2654,-0.2654,0,0,0,0,0,0,0,0,-0.2558,-0.2562,-0.2602,-0.2603,-0.2605,-0.2636,-0.2624,-0.2654,-0.2637,-0.2622,-0.2635,-0.2634,-0.2644,-0.2645,-0.2652,-0.2674,-0.2674,-0.2654,-0.2655,-0.2655,-0.2656,0,0,0,0,0,0,0,-0.2556,-0.2561,-0.2613,-0.2603,-0.2605,-0.2611,-0.2615,-0.2629,-0.2634,-0.2623,-0.2623,-0.2633,-0.2644,-0.2651,-0.2652,-0.2675,-0.2654,-0.2655,-0.2656,-0.2656,-0.2713,-0.2714,0,0,0,0,0,0,-0.2556,-0.2558,-0.2612,-0.2615,-0.2582,-0.2613,-0.2617,-0.2625,-0.2634,-0.2636,-0.2634,-0.2633,-0.2649,-0.2651,-0.2652,-0.2673,-0.2655,-0.2656,-0.2657,-0.2713,-0.2714,-0.2714,0,0,0,0,0,0,-0.2554,-0.256,-0.261,-0.259,-0.2597,-0.2616,-0.2624,-0.2626,-0.263,-0.2643,-0.2644,-0.2635,-0.2648,-0.2651,-0.2664,-0.2673,-0.2657,-0.2658,-0.2712,-0.2713,-0.2714,-0.2718,0,0,0,0,0,0,-0.2552,-0.2559,-0.2558,-0.259,-0.2598,-0.2633,-0.2625,-0.2627,-0.2639,-0.2638,-0.2645,-0.2646,-0.2648,-0.2662,-0.2666,-0.2675,-0.2659,-0.2711,-0.2712,-0.2714,-0.2717,-0.2719,-0.2721,0,0,0,0,0,-0.2549,-0.256,-0.2558,-0.2564,-0.2598,-0.2634,-0.2639,-0.2647,-0.264,-0.2646,-0.2649,-0.2645,-0.2674,-0.2664,-0.2668,-0.2677,-0.271,-0.2712,-0.2713,-0.2716,-0.2719,-0.2721,0,0,0,0,0,0,-0.2533,-0.2562,-0.2559,-0.2578,-0.2602,-0.2634,-0.2642,-0.2648,-0.2657,-0.2651,-0.2655,-0.2657,-0.2673,-0.2678,-0.2667,-0.2699,-0.2692,-0.2694,-0.2693,-0.2695,-0.2697,-0.2694,-0.266,0,0,0,0,0,-0.2528,-0.2538,-0.257,-0.2583,-0.2595,-0.2616,-0.2628,-0.2637,-0.2654,-0.2656,-0.2663,-0.2672,-0.2686,-0.2691,-0.2704,-0.2722,-0.2716,-0.2731,-0.2733,-0.2735,-0.2736,-0.2743,-0.2745,-0.272,-0.272,-0.272,0,0,-0.2526,-0.2542,-0.2548,-0.2579,-0.2595,-0.2619,-0.262,-0.2644,-0.266,-0.2657,-0.2673,-0.268,-0.2693,-0.2711,-0.2719,-0.2714,-0.2736,-0.2737,-0.2738,-0.2738,-0.2745,-0.2747,-0.2749,-0.2721,-0.2721,-0.2721,0,0,-0.253,-0.254,-0.2549,-0.2572,-0.26,-0.2619,-0.2626,-0.2657,-0.2662,-0.2683,-0.2685,-0.2696,-0.2718,-0.2728,-0.2736,-0.276,-0.2748,-0.2766,-0.2772,-0.2778,-0.278,-0.2782,-0.2761,-0.2761,-0.2765,-0.2765,-0.2765,0,-0.2522,-0.2538,-0.2558,-0.2578,-0.2597,-0.2619,-0.2639,-0.2658,-0.2687,-0.2694,-0.2687,-0.272,-0.2727,-0.2752,-0.2758,-0.2764,-0.2757,-0.2758,-0.278,-0.2781,-0.2783,-0.2762,-0.2761,-0.2765,-0.2765,-0.2765,-0.2765,0,-0.2535,-0.2549,-0.2562,-0.2588,-0.2613,-0.2636,-0.2669,-0.2687,-0.2695,-0.271,-0.2731,-0.2741,-0.2758,-0.2765,-0.2767,-0.2787,-0.2773,-0.2781,-0.2769,-0.2785,-0.2762,-0.2762,-0.2766,-0.2766,-0.2766,-0.2766,0,0,-0.251,-0.2558,-0.2559,-0.2571,-0.2618,-0.264,-0.2673,-0.2706,-0.2721,-0.2741,-0.2755,-0.2779,-0.2779,-0.2788,-0.2794,-0.2799,-0.2796,-0.2793,-0.2793,-0.2765,-0.279,-0.276,-0.2757,-0.2807,-0.2807,-0.2807,-0.2763,0,-0.2507,-0.2535,-0.2567,-0.2597,-0.2613,-0.2654,-0.2683,-0.2716,-0.2738,-0.2759,-0.2772,-0.2787,-0.279,-0.2792,-0.2801,-0.2804,-0.2798,-0.2806,-0.2785,-0.2784,-0.2751,-0.2757,-0.2518,-0.2457,-0.2762,-0.2762,-0.2762,0,-0.2497,-0.252,-0.2542,-0.2592,-0.2604,-0.2626,-0.267,-0.2701,-0.2745,-0.2761,-0.2783,-0.2795,-0.2811,-0.2806,-0.2812,-0.2816,-0.2801,-0.2796,-0.2795,-0.2767,-0.2755,-0.2495,-0.2445,-0.2761,-0.2761,-0.2761,-0.2762,0,-0.2446,-0.2499,-0.251,-0.2529,-0.2592,-0.2606,-0.2638,-0.2689,-0.2714,-0.2755,-0.2772,-0.2798,-0.2803,-0.2805,-0.2798,-0.2805,-0.2791,-0.2799,-0.2753,-0.275,-0.2543,-0.2521,-0.2792,-0.2792,-0.2792,-0.2793,-0.2793,0,-0.2417,-0.2428,-0.2484,-0.2489,-0.251,-0.2566,-0.2588,-0.2631,-0.2684,-0.2715,-0.2759,-0.2783,-0.2804,-0.2805,-0.2796,-0.2769,-0.2788,-0.2751,-0.2742,-0.2537,-0.2517,-0.2784,-0.2784,-0.2791,-0.2791,-0.2792,-0.2792,0,-0.2348,-0.2385,-0.2405,-0.2466,-0.2479,-0.249,-0.2553,-0.2577,-0.2637,-0.2678,-0.269,-0.276,-0.2775,-0.278,-0.2776,-0.2758,-0.2739,-0.272,-0.2469,-0.2433,-0.2689,-0.269,-0.2667,-0.2666,-0.2665,-0.2664,-0.2663,0,-0.2313,-0.2312,-0.2368,-0.2375,-0.2396,-0.2424,-0.2447,-0.253,-0.2563,-0.2665,-0.2679,-0.272,-0.2742,-0.2725,-0.2658,-0.2612,-0.2705,-0.2401,-0.2386,-0.2685,-0.2679,-0.2681,-0.2683,-0.2092,-0.2087,-0.2083,-0.2079,0,-0.2245,-0.2262,-0.2278,-0.2294,-0.2313,-0.2343,-0.2384,-0.2411,-0.2516,-0.2562,-0.2638,-0.2665,-0.2644,-0.2495,-0.2433,-0.2385,-0.2395,-0.2315,-0.2667,-0.219,-0.2148,-0.2142,-0.2161,-0.204,-0.2044,-0.2047,-0.2049,-0.205,-0.2184,-0.2177,-0.2191,-0.2199,-0.2224,-0.2241,-0.2241,-0.2272,-0.231,-0.2319,-0.2464,-0.2409,-0.2388,-0.2179,-0.2086,-0.2009,-0.219,-0.21,-0.211,-0.2126,-0.2097,-0.2058,-0.1925,-0.1928,-0.1931,-0.1933,-0.1935,0,-0.2082,-0.209,-0.2096,-0.2099,-0.2071,-0.2134,-0.2181,-0.2116,-0.2089,-0.2112,-0.2109,-0.1912,-0.1802,-0.1808,-0.1617,-0.1614,-0.1561,-0.157,-0.148,-0.152,-0.1555,-0.1495,-0.1164,-0.1162,-0.116,-0.1158,0,0,-0.2029,-0.1979,-0.1982,-0.1915,-0.1933,-0.1854,-0.1862,-0.1777,-0.1741,-0.1632,-0.159,-0.1651,-0.1749,-0.1428,-0.1368,-0.1244,-0.1369,-0.1186,-0.1801,-0.1733,-0.1766,-0.1855,-0.1808,0,0,0,0,0]},{"header":{"parameterUnit":"m.s-1","parameterCategory":2,"la1":30.2991,"la2":30.254,"lo1":-89.0895,"lo2":-89.0444,"dy":0.0017,"dx":0.0017,"nx":28,"ny":28,"refTime":"2023-10-31T21:00:00:Z","depth":"2","parameterNumber":3,"parameterNumberName":"V-component_of_CURRENTS"},"data":[0,0,0,0,0,0,0,0,0,0,0,0,0,0,0,0,0,0,0,0,0,0,0,0,0,0,0,0,0,0,0,0,0,0,0,0,0,0,0,0,0,0,0,0,0,0,0,0,0,0,0,0,0,0,0,0,0,0,-0.0675,-0.0674,0,-0.0612,-0.0611,-0.061,-0.0552,-0.0552,-0.0551,-0.0551,-0.0426,-0.0423,-0.042,0,0,0,0,0,0,0,0,0,0,0,0,0,-0.0684,-0.0684,-0.0675,-0.0674,-0.0674,-0.0612,-0.0611,-0.061,-0.0553,-0.0552,-0.0551,-0.0551,-0.0427,-0.0423,-0.042,0,0,0,0,0,0,0,0,0,0,0,0,0,-0.0654,-0.0684,-0.0675,-0.0639,-0.0636,-0.0612,-0.0611,-0.061,-0.0553,-0.0552,-0.0551,-0.0551,-0.0428,-0.0424,-0.0419,-0.0408,0,0,-0.0406,-0.0404,0,0,0,0,0,0,0,0,-0.0656,-0.0654,-0.0645,-0.0642,-0.0638,-0.0591,-0.0568,-0.054,-0.0553,-0.0582,-0.0551,-0.055,-0.0477,-0.0469,-0.0456,-0.0402,-0.0396,-0.0406,-0.0403,-0.0401,-0.04,0,0,0,0,0,0,0,-0.0658,-0.0656,-0.0648,-0.0645,-0.064,-0.0605,-0.0601,-0.0562,-0.0532,-0.0579,-0.0576,-0.0572,-0.0474,-0.0461,-0.0453,-0.0395,-0.0406,-0.0402,-0.04,-0.0398,-0.0316,-0.0316,0,0,0,0,0,0,-0.0675,-0.0659,-0.065,-0.0646,-0.0648,-0.0606,-0.0601,-0.0605,-0.0533,-0.0523,-0.0573,-0.057,-0.0469,-0.0458,-0.0448,-0.0427,-0.0401,-0.0397,-0.0395,-0.0315,-0.0316,-0.0316,0,0,0,0,0,0,-0.0676,-0.0675,-0.0652,-0.0652,-0.0647,-0.0608,-0.0612,-0.0604,-0.059,-0.053,-0.0517,-0.0567,-0.0468,-0.0454,-0.0417,-0.0422,-0.0395,-0.0392,-0.0315,-0.0316,-0.0316,-0.0386,0,0,0,0,0,0,-0.0676,-0.0676,-0.0683,-0.0654,-0.0648,-0.0644,-0.0613,-0.0604,-0.059,-0.0586,-0.0521,-0.0508,-0.0466,-0.0424,-0.0413,-0.0415,-0.0388,-0.0314,-0.0315,-0.0316,-0.0383,-0.0389,-0.0394,0,0,0,0,0,-0.0677,-0.0691,-0.0683,-0.0682,-0.0659,-0.0644,-0.0638,-0.0605,-0.0591,-0.0589,-0.0546,-0.051,-0.0421,-0.0421,-0.0407,-0.0409,-0.0314,-0.0315,-0.0316,-0.0381,-0.0388,-0.0393,0,0,0,0,0,0,-0.0694,-0.0686,-0.0677,-0.0687,-0.067,-0.0636,-0.0632,-0.0613,-0.0578,-0.0572,-0.0513,-0.0498,-0.0468,-0.0431,-0.0433,-0.0388,-0.0362,-0.0361,-0.0416,-0.0422,-0.0427,-0.0436,-0.0385,0,0,0,0,0,-0.0704,-0.0714,-0.0696,-0.0703,-0.0699,-0.0668,-0.0658,-0.0639,-0.0607,-0.0591,-0.0547,-0.0501,-0.0462,-0.0437,-0.0398,-0.0373,-0.0341,-0.0366,-0.0372,-0.0376,-0.0375,-0.0337,-0.0339,-0.0319,-0.0319,-0.0319,0,0,-0.0712,-0.0709,-0.0713,-0.0707,-0.0692,-0.0692,-0.0659,-0.0652,-0.0645,-0.0583,-0.0558,-0.0518,-0.0461,-0.0433,-0.0416,-0.0401,-0.0368,-0.0378,-0.0382,-0.0378,-0.0338,-0.034,-0.0342,-0.032,-0.032,-0.032,0,0,-0.0736,-0.0732,-0.075,-0.0742,-0.0731,-0.0712,-0.0715,-0.0687,-0.0666,-0.0643,-0.0597,-0.0563,-0.0504,-0.0465,-0.0437,-0.0449,-0.04,-0.0437,-0.0465,-0.0429,-0.043,-0.0431,-0.0406,-0.0403,-0.0437,-0.0437,-0.0437,0,-0.0746,-0.0766,-0.075,-0.0763,-0.0761,-0.0727,-0.074,-0.0716,-0.0677,-0.066,-0.0644,-0.0562,-0.0519,-0.0478,-0.0483,-0.0461,-0.0434,-0.0447,-0.0436,-0.0436,-0.0436,-0.0409,-0.0406,-0.044,-0.044,-0.0439,-0.0439,0,-0.0782,-0.0796,-0.0805,-0.0812,-0.0806,-0.0812,-0.0784,-0.077,-0.0744,-0.0714,-0.0673,-0.0617,-0.0566,-0.0551,-0.0518,-0.0493,-0.0474,-0.0451,-0.0423,-0.0442,-0.0413,-0.0408,-0.0445,-0.0444,-0.0443,-0.0442,0,0,-0.0811,-0.0829,-0.0832,-0.0847,-0.0835,-0.0836,-0.0825,-0.0804,-0.0792,-0.0749,-0.0726,-0.0668,-0.0634,-0.0601,-0.0556,-0.0524,-0.0505,-0.049,-0.0487,-0.047,-0.0431,-0.0402,-0.0393,-0.0479,-0.0478,-0.0478,-0.0417,0,-0.0844,-0.0886,-0.0879,-0.0909,-0.0929,-0.0896,-0.0887,-0.0859,-0.0824,-0.079,-0.0728,-0.0689,-0.0653,-0.063,-0.0594,-0.0519,-0.0494,-0.0524,-0.041,-0.0407,-0.0382,-0.0387,-0.0344,-0.0284,-0.0412,-0.0411,-0.041,0,-0.0882,-0.0907,-0.0951,-0.0965,-0.0969,-0.0976,-0.0957,-0.0944,-0.0882,-0.0851,-0.08,-0.0743,-0.0682,-0.0655,-0.0547,-0.0566,-0.051,-0.0458,-0.0454,-0.0396,-0.0368,-0.0282,-0.027,-0.0402,-0.0403,-0.0403,-0.0404,0,-0.0922,-0.0955,-0.0994,-0.1001,-0.1009,-0.1015,-0.1009,-0.0965,-0.0952,-0.0888,-0.0866,-0.0781,-0.0735,-0.0652,-0.0538,-0.0543,-0.0418,-0.041,-0.0335,-0.0333,-0.0257,-0.0249,-0.0348,-0.0349,-0.0349,-0.0349,-0.0349,0,-0.0965,-0.0995,-0.1019,-0.1044,-0.108,-0.1062,-0.1077,-0.1051,-0.1008,-0.0995,-0.0904,-0.0867,-0.0731,-0.0636,-0.0546,-0.0417,-0.0423,-0.0338,-0.0311,-0.0282,-0.0277,-0.0344,-0.0344,-0.0347,-0.0347,-0.0347,-0.0348,0,-0.1007,-0.1021,-0.1072,-0.1098,-0.1107,-0.1133,-0.1136,-0.114,-0.1087,-0.1066,-0.1047,-0.0925,-0.0796,-0.0655,-0.0505,-0.0426,-0.0309,-0.0267,-0.0245,-0.0217,-0.0252,-0.0257,-0.0186,-0.0185,-0.0183,-0.0182,-0.0181,0,-0.1034,-0.1067,-0.1123,-0.1157,-0.1175,-0.1205,-0.1223,-0.1189,-0.1187,-0.1102,-0.1095,-0.0958,-0.0865,-0.062,-0.0417,-0.024,-0.027,-0.0131,-0.0137,-0.0253,-0.0234,-0.0241,-0.0247,-0.0068,-0.0066,-0.0065,-0.0064,0,-0.1085,-0.1106,-0.115,-0.1225,-0.1266,-0.1305,-0.1324,-0.1333,-0.1284,-0.1248,-0.1181,-0.1098,-0.082,-0.057,-0.031,-0.0209,-0.0153,-0.0098,-0.0201,-0.0122,-0.0137,-0.012,-0.0131,-0.005,-0.0052,-0.0053,-0.0053,-0.0054,-0.112,-0.1166,-0.1226,-0.1296,-0.1346,-0.1397,-0.1437,-0.1398,-0.1389,-0.1289,-0.1228,-0.104,-0.0798,-0.0384,-0.0189,0.0004,-0.005,-0.0007,-0.0013,-0.002,-0.0023,-0.0036,0.0069,0.0068,0.0068,0.0067,0.0067,0,-0.1145,-0.1217,-0.129,-0.1375,-0.1419,-0.145,-0.1499,-0.1461,-0.142,-0.1286,-0.1172,-0.0871,-0.0573,-0.0325,0.0008,0.0154,0.0156,0.0172,0.0153,0.0139,0.0127,0.0129,0.0263,0.0264,0.0265,0.0266,0,0,-0.1164,-0.1234,-0.1278,-0.1393,-0.1471,-0.151,-0.1544,-0.1462,-0.1346,-0.1186,-0.1033,-0.0825,-0.0553,-0.0276,-0.0057,0.0117,0.008,0.0136,-0.0037,-0.0098,-0.0112,0.0012,-0.0001,0,0,0,0,0]}],[{"header":{"parameterUnit":"m.s-1","parameterCategory":2,"la1":30.2991,"la2":30.254,"lo1":-89.0895,"lo2":-89.0444,"dy":0.0017,"dx":0.0017,"nx":28,"ny":28,"refTime":"2023-10-31T21:00:00:Z","depth":"4","parameterNumber":2,"parameterNumberName":"U-component_of_CURRENTS"},"data":[0,0,0,0,0,0,0,0,0,0,0,0,0,0,0,0,0,0,0,0,0,0,0,0,0,0,0,0,0,0,0,0,0,0,0,0,0,0,0,0,0,0,0,0,0,0,0,0,0,0,0,0,0,0,0,0,0,0,-0.1591,-0.1592,0,-0.1628,-0.1629,-0.1629,-0.1657,-0.1657,-0.1658,-0.1658,-0.1719,-0.1721,-0.1722,0,0,0,0,0,0,0,0,0,0,0,0,0,-0.1545,-0.1546,-0.1591,-0.1592,-0.1592,-0.1628,-0.1629,-0.1629,-0.1657,-0.1657,-0.1658,-0.1658,-0.1719,-0.172,-0.1722,0,0,0,0,0,0,0,0,0,0,0,0,0,-0.1572,-0.1546,-0.1591,-0.1611,-0.1613,-0.1628,-0.1629,-0.1629,-0.1657,-0.1657,-0.1658,-0.1658,-0.1718,-0.172,-0.1722,-0.1726,0,0,-0.1729,-0.1729,0,0,0,0,0,0,0,0,-0.157,-0.1573,-0.1607,-0.161,-0.1612,-0.1639,-0.1635,-0.1663,-0.1657,-0.164,-0.1658,-0.1658,-0.1695,-0.1699,-0.1704,-0.1729,-0.1732,-0.1729,-0.173,-0.1731,-0.1731,0,0,0,0,0,0,0,-0.1568,-0.1572,-0.1606,-0.1608,-0.1611,-0.1618,-0.1622,-0.164,-0.1664,-0.1641,-0.1644,-0.1648,-0.1696,-0.1702,-0.1705,-0.1733,-0.1729,-0.1731,-0.1732,-0.1733,-0.1837,-0.1839,0,0,0,0,0,0,-0.1564,-0.157,-0.1604,-0.1607,-0.1592,-0.1618,-0.1623,-0.1629,-0.1664,-0.1669,-0.1648,-0.1649,-0.1698,-0.1703,-0.1708,-0.1774,-0.1731,-0.1733,-0.1734,-0.1836,-0.1838,-0.1839,0,0,0,0,0,0,-0.1563,-0.1567,-0.1603,-0.1589,-0.1595,-0.1619,-0.1626,-0.163,-0.166,-0.1668,-0.1675,-0.1676,-0.1698,-0.1705,-0.1747,-0.1774,-0.1734,-0.1736,-0.1834,-0.1836,-0.1838,-0.1868,0,0,0,0,0,0,-0.1561,-0.1566,-0.1582,-0.1589,-0.1595,-0.1628,-0.1625,-0.163,-0.1661,-0.1664,-0.1695,-0.1699,-0.1699,-0.1744,-0.1749,-0.1776,-0.1737,-0.1832,-0.1835,-0.1838,-0.1865,-0.1871,-0.1876,0,0,0,0,0,-0.156,-0.1577,-0.1583,-0.1588,-0.1612,-0.1629,-0.1634,-0.1651,-0.1662,-0.168,-0.1702,-0.17,-0.1766,-0.1746,-0.1752,-0.1781,-0.183,-0.1834,-0.1837,-0.1863,-0.187,-0.1876,0,0,0,0,0,0,-0.1568,-0.1582,-0.1588,-0.1611,-0.1626,-0.1635,-0.1656,-0.1667,-0.1698,-0.171,-0.1717,-0.1723,-0.1771,-0.1775,-0.1753,-0.1821,-0.1799,-0.1804,-0.1816,-0.1823,-0.1829,-0.1824,-0.1739,0,0,0,0,0,-0.1575,-0.1595,-0.1605,-0.1626,-0.1635,-0.1651,-0.1666,-0.1678,-0.1699,-0.1714,-0.1736,-0.1762,-0.1785,-0.1804,-0.1825,-0.1861,-0.1851,-0.1886,-0.1891,-0.1896,-0.1897,-0.191,-0.1916,-0.1851,-0.1851,-0.1851,0,0,-0.1587,-0.1596,-0.1609,-0.163,-0.1645,-0.1663,-0.1662,-0.1692,-0.1715,-0.1716,-0.1767,-0.1785,-0.1801,-0.184,-0.1862,-0.185,-0.1908,-0.19,-0.1904,-0.1903,-0.1914,-0.192,-0.1925,-0.1853,-0.1853,-0.1852,0,0,-0.1604,-0.1626,-0.1642,-0.1657,-0.1682,-0.1692,-0.1706,-0.1731,-0.1754,-0.1795,-0.1804,-0.1838,-0.1879,-0.1892,-0.1903,-0.1954,-0.1937,-0.1968,-0.1992,-0.2004,-0.2009,-0.2013,-0.1996,-0.1999,-0.197,-0.197,-0.1971,0,-0.1617,-0.1635,-0.1651,-0.1667,-0.1685,-0.1707,-0.1729,-0.1753,-0.1792,-0.1813,-0.182,-0.1884,-0.1901,-0.1939,-0.1958,-0.1966,-0.196,-0.1961,-0.2009,-0.2014,-0.2017,-0.1999,-0.2001,-0.1972,-0.1972,-0.1972,-0.1972,0,-0.1633,-0.166,-0.1673,-0.17,-0.1723,-0.1749,-0.1777,-0.1812,-0.1844,-0.1863,-0.1918,-0.194,-0.1974,-0.199,-0.199,-0.2031,-0.2013,-0.2013,-0.1986,-0.2025,-0.2004,-0.2005,-0.1975,-0.1974,-0.1974,-0.1973,0,0,-0.1623,-0.1675,-0.1681,-0.1699,-0.1745,-0.176,-0.181,-0.185,-0.1881,-0.1927,-0.1963,-0.2012,-0.2025,-0.2038,-0.2048,-0.2062,-0.2081,-0.2053,-0.2052,-0.2024,-0.2089,-0.1971,-0.1961,-0.209,-0.2091,-0.2092,-0.2057,0,-0.163,-0.1665,-0.1695,-0.1737,-0.1754,-0.1797,-0.1838,-0.1881,-0.192,-0.1962,-0.1995,-0.2034,-0.2043,-0.2061,-0.208,-0.2085,-0.209,-0.2089,-0.2065,-0.2064,-0.1945,-0.1961,-0.2095,-0.2059,-0.2059,-0.2059,-0.2059,0,-0.1621,-0.1649,-0.1692,-0.1748,-0.1761,-0.1795,-0.1858,-0.1896,-0.1957,-0.1991,-0.2035,-0.2059,-0.2097,-0.2095,-0.2118,-0.2118,-0.2108,-0.2104,-0.2102,-0.1982,-0.1949,-0.2017,-0.2062,-0.2062,-0.2062,-0.2062,-0.2062,0,-0.1578,-0.164,-0.1677,-0.1697,-0.1767,-0.1801,-0.184,-0.1904,-0.1936,-0.2005,-0.2031,-0.2082,-0.2103,-0.2116,-0.2116,-0.2121,-0.212,-0.2124,-0.2003,-0.1994,-0.2097,-0.2093,-0.2132,-0.2132,-0.2132,-0.2132,-0.2132,0,-0.1547,-0.1578,-0.1664,-0.1678,-0.1725,-0.178,-0.183,-0.1878,-0.194,-0.1965,-0.2038,-0.2054,-0.2112,-0.2118,-0.2117,-0.2053,-0.212,-0.2,-0.1979,-0.2109,-0.2107,-0.2097,-0.2093,-0.213,-0.2131,-0.2131,-0.2131,0,-0.1481,-0.1542,-0.1584,-0.1671,-0.1702,-0.173,-0.1811,-0.1834,-0.1911,-0.1943,-0.1965,-0.2036,-0.2043,-0.2071,-0.208,-0.2031,-0.1999,-0.196,-0.2078,-0.2066,-0.1863,-0.1862,-0.1817,-0.1813,-0.1809,-0.1806,-0.1803,0,-0.1445,-0.1464,-0.1566,-0.159,-0.1631,-0.1687,-0.1718,-0.1806,-0.1823,-0.1911,-0.1905,-0.195,-0.1983,-0.1886,-0.1945,-0.1914,-0.1903,-0.1865,-0.1882,-0.1847,-0.1832,-0.1837,-0.1841,-0.1797,-0.1796,-0.1795,-0.1794,0,-0.1375,-0.1428,-0.1464,-0.1514,-0.1556,-0.1593,-0.1639,-0.1641,-0.1726,-0.1819,-0.1793,-0.1792,-0.1792,-0.1797,-0.1779,-0.1767,-0.1881,-0.1826,-0.1834,-0.185,-0.1823,-0.1813,-0.1821,-0.1781,-0.1783,-0.1784,-0.1785,0,-0.1323,-0.1332,-0.1387,-0.1415,-0.1468,-0.1464,-0.1508,-0.1516,-0.1546,-0.1643,-0.1631,-0.1689,-0.1762,-0.1719,-0.1709,-0.168,-0.1669,-0.1621,-0.164,-0.1655,-0.1622,-0.1565,-0.1418,0,0,0,0,0,-0.1259,-0.1253,-0.1278,-0.1297,-0.1344,-0.1369,-0.1437,-0.1482,-0.1572,-0.1508,-0.1561,-0.1556,-0.1542,-0.1581,-0.1519,-0.1653,-0.1681,-0.1576,-0.1638,-0.1709,-0.1724,-0.1703,0,0,0,0,0,0,-0.1211,-0.1234,-0.1238,-0.119,-0.1181,-0.121,-0.1247,-0.131,-0.1282,-0.1384,-0.1382,-0.1467,-0.1476,-0.1549,-0.1487,-0.1499,-0.1509,-0.1624,-0.162,-0.1701,-0.1714,-0.1727,-0.171,0,0,0,0,0]},{"header":{"parameterUnit":"m.s-1","parameterCategory":2,"la1":30.2991,"la2":30.254,"lo1":-89.0895,"lo2":-89.0444,"dy":0.0017,"dx":0.0017,"nx":28,"ny":28,"refTime":"2023-10-31T21:00:00:Z","depth":"4","parameterNumber":3,"parameterNumberName":"V-component_of_CURRENTS"},"data":[0,0,0,0,0,0,0,0,0,0,0,0,0,0,0,0,0,0,0,0,0,0,0,0,0,0,0,0,0,0,0,0,0,0,0,0,0,0,0,0,0,0,0,0,0,0,0,0,0,0,0,0,0,0,0,0,0,0,-0.0063,-0.0062,0,-0.0014,-0.0013,-0.0013,0.0023,0.0023,0.0023,0.0023,0.0109,0.0111,0.0113,0,0,0,0,0,0,0,0,0,0,0,0,0,-0.0076,-0.0077,-0.0063,-0.0062,-0.0062,-0.0014,-0.0013,-0.0012,0.0022,0.0023,0.0023,0.0023,0.0108,0.0111,0.0113,0,0,0,0,0,0,0,0,0,0,0,0,0,-0.0053,-0.0077,-0.0063,-0.0039,-0.0037,-0.0014,-0.0013,-0.0012,0.0022,0.0023,0.0023,0.0023,0.0107,0.011,0.0113,0.0126,0,0,0.0123,0.0124,0,0,0,0,0,0,0,0,-0.0054,-0.0052,-0.0043,-0.0041,-0.0038,-0.0002,0.0013,0.0036,0.0022,0.0001,0.0023,0.0024,0.0074,0.008,0.0089,0.013,0.0134,0.0123,0.0125,0.0127,0.0127,0,0,0,0,0,0,0,-0.0056,-0.0054,-0.0043,-0.0043,-0.004,-0.0014,-0.0011,0.0018,0.0036,0.0003,0.0005,0.0009,0.0076,0.0086,0.0092,0.0135,0.0123,0.0126,0.0128,0.0129,0.0174,0.0173,0,0,0,0,0,0,-0.0067,-0.0056,-0.0044,-0.0041,-0.0046,-0.0014,-0.001,-0.0013,0.0035,0.0043,0.0009,0.0011,0.0081,0.0088,0.0095,0.0097,0.0126,0.0129,0.0131,0.0175,0.0174,0.0173,0,0,0,0,0,0,-0.0067,-0.0066,-0.0046,-0.0047,-0.0043,-0.0015,-0.0018,-0.0013,-0.0007,0.004,0.0048,0.0009,0.0081,0.0091,0.0111,0.0101,0.0131,0.0134,0.0175,0.0174,0.0173,0.0111,0,0,0,0,0,0,-0.0068,-0.0067,-0.0075,-0.0049,-0.0044,-0.004,-0.0018,-0.0012,-0.0005,-0.0002,0.0042,0.0051,0.0082,0.0106,0.0114,0.0106,0.0136,0.0176,0.0175,0.0174,0.0114,0.0108,0.0103,0,0,0,0,0,-0.0069,-0.0079,-0.0075,-0.0074,-0.0055,-0.0041,-0.0036,-0.0014,-0.0005,-0.0007,0.0021,0.0049,0.0104,0.0108,0.0118,0.011,0.0177,0.0175,0.0174,0.0116,0.0109,0.0103,0,0,0,0,0,0,-0.0084,-0.0076,-0.0071,-0.0078,-0.0065,-0.0036,-0.0035,-0.0021,-0.0001,-0.0,0.0044,0.0054,0.0068,0.0096,0.0099,0.0118,0.0144,0.0144,0.0097,0.009,0.0085,0.0076,0.0139,0,0,0,0,0,-0.0094,-0.0103,-0.0086,-0.0092,-0.0089,-0.0065,-0.0058,-0.0045,-0.0023,-0.0014,0.0016,0.0045,0.0069,0.0084,0.011,0.0123,0.0144,0.0122,0.0117,0.0112,0.011,0.0133,0.0129,0.0168,0.0168,0.0168,0,0,-0.0101,-0.0099,-0.0103,-0.0097,-0.0086,-0.0087,-0.006,-0.0056,-0.0056,-0.0007,-0.0,0.0028,0.0068,0.008,0.0088,0.0102,0.0109,0.011,0.0106,0.0107,0.0131,0.0127,0.0124,0.0167,0.0167,0.0167,0,0,-0.0122,-0.0121,-0.0136,-0.0131,-0.0123,-0.0109,-0.0112,-0.0091,-0.008,-0.0071,-0.0038,-0.0019,0.0018,0.0044,0.0062,0.0042,0.0078,0.0048,0.0017,0.0038,0.0035,0.0033,0.0041,0.004,0.0047,0.0047,0.0046,0,-0.0133,-0.0151,-0.0137,-0.0148,-0.015,-0.0123,-0.0138,-0.0122,-0.0097,-0.0092,-0.0079,-0.0033,0.0001,0.002,0.0012,0.003,0.0044,0.0038,0.0031,0.0029,0.0028,0.0037,0.0036,0.0043,0.0044,0.0044,0.0044,0,-0.0163,-0.0178,-0.0186,-0.0196,-0.0194,-0.0203,-0.0184,-0.018,-0.0167,-0.0148,-0.0133,-0.009,-0.0063,-0.0051,-0.0023,-0.0017,-0.0005,0.0019,0.0047,0.002,0.0031,0.0032,0.0039,0.004,0.0041,0.0042,0,0,-0.0183,-0.0205,-0.0209,-0.0228,-0.0224,-0.0228,-0.023,-0.0224,-0.0229,-0.0201,-0.0202,-0.016,-0.0136,-0.0114,-0.0078,-0.0056,-0.0056,-0.0027,-0.0024,-0.0022,-0.0021,-0.0002,0.0001,-0.0033,-0.0033,-0.0033,-0.0015,0,-0.0213,-0.0254,-0.0252,-0.0288,-0.0308,-0.0291,-0.0297,-0.0287,-0.027,-0.0261,-0.0216,-0.0201,-0.0159,-0.0151,-0.0123,-0.0067,-0.0054,-0.0064,0.0007,0.0009,0.0027,0.0003,-0.0032,-0.0014,-0.0014,-0.0014,-0.0014,0,-0.0242,-0.0269,-0.0315,-0.0346,-0.0353,-0.037,-0.0381,-0.0381,-0.0354,-0.034,-0.0312,-0.0272,-0.0233,-0.0199,-0.0124,-0.0132,-0.0087,-0.0045,-0.0043,-0.0001,0.003,0.0022,-0.0012,-0.0012,-0.0012,-0.0012,-0.0012,0,-0.0271,-0.0312,-0.0356,-0.0365,-0.0392,-0.0413,-0.0424,-0.0411,-0.0416,-0.0391,-0.0389,-0.0332,-0.0307,-0.0239,-0.0145,-0.0139,-0.0063,-0.0042,0.0012,0.0014,0.002,0.0023,-0.0003,-0.0003,-0.0003,-0.0003,-0.0003,0,-0.03,-0.0335,-0.0379,-0.0403,-0.0457,-0.0458,-0.05,-0.0494,-0.0489,-0.0498,-0.0435,-0.0423,-0.0315,-0.0251,-0.0169,-0.0074,-0.0082,0.0,0.002,-0.0009,-0.001,0.002,0.0022,-0.0002,-0.0002,-0.0002,-0.0003,0,-0.0318,-0.0346,-0.0402,-0.0452,-0.0474,-0.0512,-0.0558,-0.0579,-0.0566,-0.0575,-0.057,-0.0495,-0.0407,-0.0297,-0.0183,-0.0109,-0.0017,0.0016,-0.0037,-0.0019,0.0046,0.0044,0.0067,0.0068,0.0068,0.0069,0.007,0,-0.0327,-0.0361,-0.0443,-0.0484,-0.0514,-0.057,-0.0608,-0.0619,-0.0635,-0.0614,-0.0616,-0.0541,-0.0477,-0.0306,-0.0186,-0.0036,-0.0007,0.0032,0.0049,0.0036,0.0053,0.0051,0.0049,0.0071,0.0071,0.0071,0.0071,0,-0.0346,-0.0383,-0.0432,-0.0518,-0.0579,-0.064,-0.069,-0.0707,-0.0709,-0.0702,-0.0651,-0.0555,-0.0453,-0.0308,-0.0188,-0.0077,0.0006,0.004,0.004,0.0056,0.0041,0.0057,0.0054,0.0074,0.0073,0.0073,0.0073,0,-0.036,-0.0403,-0.0473,-0.0546,-0.0624,-0.0685,-0.0712,-0.0729,-0.0741,-0.0709,-0.0694,-0.0576,-0.0508,-0.033,-0.0219,-0.0105,-0.0074,-0.0035,-0.0032,-0.0033,-0.0054,-0.0087,-0.0083,0,0,0,0,0,-0.0365,-0.0418,-0.0492,-0.0578,-0.0654,-0.0694,-0.0753,-0.0767,-0.0772,-0.0742,-0.0716,-0.0617,-0.0438,-0.0357,-0.0241,-0.0204,-0.0056,-0.0064,-0.001,0.0087,0.0084,0.0081,0,0,0,0,0,0,-0.0372,-0.0445,-0.049,-0.0584,-0.064,-0.0721,-0.0758,-0.0765,-0.074,-0.0725,-0.063,-0.0582,-0.0408,-0.0502,-0.0236,-0.0201,-0.0149,0.0019,0.0022,0.0089,0.0086,0.0084,0.0079,0,0,0,0,0]}]]